SL-8 DEB, 60605

Orbit data source: Space-Track

SL-8 DEB, 60605 is space debris in LEO originally from a launch on Tue, 12 Feb 1991 UTC launched from the Plesetsk Missile And Space Complex (PKMTR). Debris objects in space refer to the collection of defunct objects orbiting the Earth. Examples of debris include non-operational satellites, rocket bodies, and fragments generated from explosions, collisions, or faulty payload assembly.

Loading next visibility...
Identifier
60605, 1991-009EA
Orbit
LEO
Country
Flag of CISCIS
Related business
Manufacturer
Unknown
Mission
Spacecraft
Bus & Motor
Unknown
Mass
Unknown
Launch date (UTC)
1991-02-12 (35 years ago)
Launch vehicle
Unknown
Launch site
Plesetsk Missile And Space Complex (PKMTR)
Object type
Payload
Rocket body
Debris
Shape & HBR
Unknown shape, 0.1 m
Radar Cross Section
Small (<0.1 m²)

Expand to show TLE details & history
Last TLE update: 16 hours ago

TLE from 16 hours ago
0 SL-8 DEB
1 60605U 91009EA  26171.17637102  .00000065  00000-0  74392-3 0  9999
2 60605  74.0506 232.1414 0174822 301.5078  56.8979 12.19936625559711
Epoch: 2026-06-20T04:13Z
TLE epoch observation values (Epoch: 2026-06-20T04:13:58.456Z)
Latitude
0.00005°
Longitude
-99.7469°
Altitude
1,520.783 km
Speed
7.138 km/s
True Right ascension
15h 28m 33s
True Declination
0° 00' 00"
Sunlit
Object was in full shadow at epoch
Visualization orbit readout
Latitude
Unknown
Longitude
Unknown
Altitude
Unknown
Speed
Unknown
Apparent Right ascension
Unknown
Apparent Declination
Unknown
Sunlit
N/A
Visualization observer readout
Local Sidereal Time
07:23:54
Azimuth
Unknown
Elevation
Unknown
Doppler factor
Unknown
Orbital elements
Apogee altitude
1,729.998 km
Perigee altitude
1,451.372 km
Semi-major axis
7,968.822 km
Eccentricity
0.01748
Inclination
74.0506°
RAAN
232.1414°
Arg. of periapsis
301.5078°
True anomaly
58.59608°
Mean anomaly
56.8979°
Eccentric anomaly
57.74498°
Mean motion
3.05107 °/min
Orbital period
117.99 mins
BSTAR
0.00074392
Loading maneuver chart data...
Computing Atmospheric mass density...
Loading historical data...
Loading historical data...
Loading historical data...
Loading historical data...
Loading historical data...
Loading historical data...
Loading historical data...

Documentation

Showing up to 5 results
|